Regional Weather Roundup
Issued by NWS Kansas City/Pleasant Hill, MO

Home | Current Version | Previous Version | Graphics & Text | Print | Product List | Glossary Off
Versions: 1 2 3 4 5 6 7 8 9 10 11 12 13 14 15 16 17 18 19 20 21 22 23 24 25 26 27 28 29 30 31 32 33 34 35 36 37 38 39 40 41 42 43 44 45 46 47 48 49 50

000
ASUS43 KEAX 301711
RWREAX

WEATHER ROUNDUP FOR EASTERN KANSAS AND NORTHWEST MISSOURI
NATIONAL WEATHER SERVICE KANSAS CITY/PLEASANT HILL MO
1200 PM CDT TUE JUN 30 2015

KSZ040-057-103>105-MOZ028-029-037-043-301800-
...KANSAS CITY METROPOLITAN AREA...

CITY           SKY/WX    TMP DP  RH WIND       PRES   REMARKS
K.C. INTL      CLOUDY    82  67  60 NW7       29.96R
K.C. DOWNTOWN  NOT AVBL
LEES SUMMIT    MOSUNNY   84  65  52 VRB7      29.95F
OLATHE - IXD   SUNNY     85  65  51 NW9       29.96F
OLATHE - OJC   SUNNY     84  64  50 NW7       29.95F
LAWRENCE       SUNNY     86  68  54 NW8       29.95S

$$

MOZ001>008-011>017-020>025-030>033-038>040-044>046-053-054-301800-
...NORTHERN AND CENTRAL MISSOURI...

CITY           SKY/WX    TMP DP  RH WIND       PRES   REMARKS
ST. JOSEPH     MOSUNNY   83  66  56 W7        29.93F
MOSBY          MOSUNNY   82  64  54 NW5       29.93S
HARRISONVILLE  MOSUNNY   90  66  45 NW7       29.97S HX  92
WHITEMAN AFB   PTSUNNY   82  67  60 NW9       29.93F
CLINTON        MOSUNNY   82  70  65 CALM      29.95F
SEDALIA        MOSUNNY   84  68  58 W7        29.95F
WARSAW         FAIR      84  68  58 CALM      29.95F
CHILLICOTHE      N/A     79  68  69 W3        29.94R
KIRKSVILLE     SUNNY     78  66  66 W6        29.92S

$$

MOZ041-047>049-056>058-063>065-088>090-097-301800-
...EASTERN AND SOUTHERN MISSOURI...

CITY           SKY/WX    TMP DP  RH WIND       PRES   REMARKS
ST. LOUIS INTL PTSUNNY   82  67  60 SW8       29.91S
SPIRIT OF STL  CLOUDY    80  70  71 VRB6      29.90S
COLUMBIA       SUNNY     80  68  66 W8        29.93S
JEFFERSON CITY SUNNY     81  67  62 NW6       29.91F
MEXICO         SUNNY     81  72  74 W9        29.92S
ROLLA          SUNNY     79  68  69 W7        29.94S
OSAGE BEACH    SUNNY     79  66  65 SW5       29.95S
SPRINGFIELD    MOSUNNY   80  66  62 W9        29.99S
BRANSON        CLOUDY    81  66  61 SW5       30.02
NEVADA         SUNNY     81  66  61 W5        29.97F
JOPLIN         SUNNY     83  70  64 W8        29.99F
WEST PLAINS    SUNNY     81  67  62 W8        30.00S
MALDEN         SUNNY     84  68  58 W9        29.94F

$$

IAZ060-094-KSZ022-034>040-054-083-096-NEZ052-066-093-301800-
...KANSAS...SOUTHEAST NEBRASKA AND IOWA...

CITY           SKY/WX    TMP DP  RH WIND       PRES   REMARKS
TOPEKA         MOSUNNY   85  67  54 NW3       29.95S
MANHATTAN      MOSUNNY   91  62  37 SW5       29.94F HX  91
EMPORIA        MOSUNNY   90  60  36 W7        29.97S
CHANUTE        SUNNY     88  65  46 CALM      29.97S HX  90
WICHITA        MOSUNNY   94  57  28 W9        29.97F HX  92
OMAHA          CLOUDY    76  66  71 N9        29.94R HAZE
LINCOLN        CLOUDY    82  65  56 S5        29.94F
FALLS CITY     PTSUNNY   80  69  69 NW3       29.93F
LAMONI         PTSUNNY   78  66  66 NW6       29.92S
DES MOINES     CLOUDY    78  65  63 NW3       29.89F

$$




USA.gov is the U.S. government's official web portal to all federal, state and local government web resources and services.